Flag for Norway Weather past 2 weeks in Farsund, Norway

Now
48 °F

Cool.


Feels Like: 44 °F
Forecast: 45 / 58 °F
Wind: 9 mph from East

Location: Lista Fyr


UV Index: 0 (Low)

Visibility: N/A


Pressure: 30.35 "Hg

Humidity: 61%

Dew point: 35 °F

Location of FarsundLocation

Historic Weather in Farsund

°F

Farsund temperature yesterday

Maximum temperature yesterday: 59 °F (at 4:00 PM)
Minimum temperature yesterday: 53 °F (at 11:00 PM)
Average temperature yesterday: 56 °F

Past Weeks' High & Low Weather Summary

 TemperatureHumidityPressure
High65 °F (Apr 21, 12:00 PM)97% (Apr 11, 2:00 AM)30.38 "Hg (Apr 11, 2:00 AM)
Low37 °F (Apr 20, 6:00 AM)30% (Apr 22, 4:00 PM)29.47 "Hg (Apr 14, 2:00 AM)
Average48 °F74%30.02 "Hg
* Reported Apr 9 4:00 AM — Apr 24 4:00 AM, Farsund, Weather by CustomWeather, © 2014

Note: Actual official high and low records may vary slightly from our data, if they occured in-between our weather recording intervals... More about our weather records

Advertising

Historic Weather Conditions — Data for Previous 24 hours

 ConditionsComfort  
Time TempWeatherWind HumidityBarometerVisibility
4:00 AM
Apr 24
49 °FCool.9 mph58%30.35 "HgN/A
3:00 AM48 °FCool.5 mph64%30.34 "HgN/A
2:00 AM51 °FCool.7 mph44%30.34 "HgN/A
1:00 AM52 °FCool.10 mph45%30.34 "HgN/A
12:00 AM53 °FCool.10 mph37%30.33 "HgN/A
11:00 PM
Apr 23
53 °FCool.7 mph39%30.33 "HgN/A
10:00 PM53 °FCool.9 mph39%30.31 "HgN/A
9:00 PM54 °FCool.10 mph36%30.29 "HgN/A
8:00 PM55 °FOvercast.10 mph35%30.28 "Hg31 mi
7:00 PM56 °FRefreshingly cool.12 mph33%30.26 "HgN/A
6:00 PM56 °FRefreshingly cool.13 mph32%30.26 "HgN/A
5:00 PM56 °FRefreshingly cool.12 mph33%30.27 "HgN/A
4:00 PM59 °FRefreshingly cool.13 mph32%30.27 "HgN/A
3:00 PM59 °FRefreshingly cool.13 mph35%30.26 "HgN/A
2:00 PM58 °FOvercast.12 mph39%30.26 "Hg31 mi
1:00 PM56 °FRefreshingly cool.12 mph37%30.25 "HgN/A
12:00 PM57 °FRefreshingly cool.12 mph41%30.24 "HgN/A
11:00 AM56 °FOvercast.12 mph49%30.23 "Hg31 mi
10:00 AM57 °FRefreshingly cool.10 mph48%30.21 "HgN/A
9:00 AM56 °FRefreshingly cool.10 mph48%30.20 "HgN/A
8:00 AM54 °FOvercast.9 mph51%30.19 "Hg37 mi
7:00 AM54 °FCool.9 mph52%30.17 "HgN/A
6:00 AM55 °FCool.9 mph51%30.14 "HgN/A
5:00 AM56 °FRefreshingly cool.8 mph48%30.13 "HgN/A
Weather by CustomWeather, © 2014

See weather overview